Wind_Speed
16 17 17 16 16 16 18 19 20 20 21 22 22 24 25 25 31 33 37 37 27 22 18 22 16 14 15 27 26 24 9 12 21 19 22 22 19 12 15 6 7 18 23 32 30
15 15 15 16 18 19 19 19 19 21 22 22 23 24 24 27 30 39 39 33 30 28 26 23 22 18 21 24 25 16 12 23 16 21 17 24 20 12 6 5 2 19 30 38 30
14 14 15 16 17 18 18 20 22 22 22 23 23 24 24 25 25 23 14 7 22 29 36 31 25 21 24 27 31 26 22 16 24 33 32 22 17 12 11 5 9 15 37 36 32
13 13 14 14 15 16 18 20 21 23 24 23 23 24 24 19 7 13 12 12 7 12 34 36 32 23 5 13 30 20 30 29 29 35 27 17 26 10 8 6 21 16 34 40 39
14 14 15 16 17 18 20 20 21 23 23 22 22 22 23 13 25 19 19 16 16 13 9 36 30 25 18 9 22 21 23 31 34 35 30 36 23 11 15 11 13 8 26 37 38
15 16 16 17 18 19 20 21 22 21 20 21 20 20 16 14 16 19 33 47 32 30 13 17 30 34 20 17 21 19 20 26 29 31 33 24 13 14 21 16 11 7 25 35 34
16 17 18 19 20 21 22 23 23 22 21 20 19 16 19 36 30 31 30 36 41 32 27 18 19 31 23 15 33 26 18 21 22 31 22 26 16 10 22 21 18 16 13 34 34
18 18 19 20 21 22 24 25 24 23 20 19 16 14 17 24 24 24 21 32 38 36 31 36 30 31 41 23 21 19 14 18 31 23 24 17 22 11 26 23 24 25 23 27 34
19 20 20 21 22 23 25 27 26 22 18 16 15 10 16 11 16 16 17 27 24 42 27 30 27 34 32 20 14 11 21 25 27 20 17 23 22 10 30 30 24 30 31 29 31
20 21 21 22 23 23 25 27 18 13 10 6 13 8 17 18 9 15 21 14 19 20 29 25 15 12 19 16 21 21 27 23 25 19 22 20 15 19 26 27 26 30 35 34 32
20 21 22 23 22 20 21 26 24 6 6 10 14 17 30 32 24 30 21 11 16 12 16 25 8 18 30 31 31 23 24 23 23 21 20 25 20 16 20 26 24 24 33 36 35
21 22 23 23 20 12 14 19 19 18 14 23 31 41 47 43 31 44 24 11 5 14 14 14 19 19 20 24 27 30 27 28 17 21 21 17 25 17 16 24 33 35 30 39 42
21 22 23 23 15 3 12 13 22 24 9 24 35 24 32 17 42 45 29 14 7 15 17 24 12 18 23 22 25 29 31 33 27 17 24 23 23 15 16 28 36 41 39 35 43
21 22 23 24 4 16 5 22 21 24 4 8 5 7 12 13 10 12 10 20 7 10 13 10 14 23 27 25 23 27 31 29 24 18 16 25 19 19 19 22 21 30 38 36 33
20 21 22 20 18 16 14 22 20 14 4 8 5 11 24 5 3 2 5 14 17 15 8 6 9 23 28 33 26 27 17 25 22 17 21 19 9 14 25 22 29 19 31 34 35
20 21 22 21 17 11 12 15 17 1 6 7 8 14 18 13 3 2 8 6 5 10 19 20 13 3 8 20 27 22 22 20 22 22 20 23 20 21 20 29 26 14 23 31 34
22 22 21 16 16 7 14 14 4 3 9 7 23 18 22 13 7 9 7 8 5 4 8 10 22 9 4 3 17 18 10 7 12 10 16 30 21 24 24 24 13 12 29 36 39
22 22 21 16 8 10 9 4 2 7 10 17 19 21 13 10 4 7 6 5 6 10 3 5 10 21 13 9 5 19 10 7 13 15 14 17 12 29 31 9 27 35 38 29 41
21 22 21 11 13 8 3 0 6 5 11 16 22 12 15 21 5 7 6 3 1 2 3 5 6 3 17 13 14 6 8 13 14 13 6 11 10 22 19 22 22 17 28 27 22
20 21 12 4 3 9 2 5 5 9 19 18 14 8 13 19 12 13 9 2 4 5 4 1 8 13 14 11 15 12 9 11 6 7 14 10 25 21 26 30 24 20 18 33 37
16 8 4 4 6 4 3 5 7 18 20 8 12 13 17 15 15 18 7 4 4 4 5 1 3 6 11 8 11 7 6 5 1 4 7 11 18 35 7 20 19 23 40 41 40
7 3 3 8 5 3 2 3 8 19 25 14 10 9 9 17 17 16 7 4 7 3 3 2 0 5 6 9 8 3 5 5 6 5 9 2 16 13 22 5 9 22 39 48 45
5 11 13 5 1 2 5 12 14 13 11 5 10 5 16 15 10 9 14 3 9 3 5 1 1 6 7 5 9 7 2 1 3 1 8 10 18 2 12 11 15 8 21 39 42
4 2 4 3 8 5 6 7 6 15 14 20 16 17 13 11 9 8 13 6 7 5 10 1 2 5 4 7 5 3 3 2 2 2 0 16 15 10 14 15 16 24 25 24 21
4 4 5 3 4 4 7 9 14 13 17 17 10 9 15 8 5 6 8 12 5 6 3 4 4 4 4 7 8 8 8 7 3 1 3 6 13 8 9 9 14 19 27 26 27
4 4 4 13 14 8 10 5 12 15 12 9 10 13 14 12 10 9 12 4 8 3 4 3 3 4 5 11 12 8 15 13 11 9 12 12 14 7 10 11 14 20 23 22 27
11 17 14 7 3 2 5 9 12 16 14 19 14 10 7 13 24 26 22 18 16 14 13 5 2 2 3 5 5 7 15 15 8 8 11 11 9 7 11 5 4 17 17 25 22
Wind_Direction
347 342 341 340 340 340 341 340 341 342 342 334 321 306 298 290 286 279 268 263 264 263 269 262 259 242 253 249 234 238 240 242 248 250 261 278 318 181 170 225 321 189 155 164 157
334 333 333 334 334 333 334 335 337 337 339 339 334 326 312 293 287 281 273 270 271 268 250 253 256 253 269 248 238 232 237 236 250 258 271 288 309 148 161 203 258 108 139 153 156
328 327 325 326 328 326 325 327 330 332 333 333 333 331 327 320 300 288 256 217 247 252 251 247 250 252 267 254 235 240 237 242 246 254 262 281 293 277 148 172 218 150 150 160 162
328 321 321 323 323 322 321 324 326 328 326 327 328 328 327 328 256 174 186 154 178 268 242 235 243 250 262 242 238 236 244 242 249 258 272 282 284 300 248 190 211 217 180 171 169
338 331 325 319 315 314 314 314 316 320 322 318 321 323 322 292 264 252 246 273 301 322 265 228 227 231 241 243 252 238 235 243 245 253 259 266 267 250 290 249 236 265 179 169 170
336 333 330 326 322 318 314 311 309 309 316 320 314 314 306 268 292 317 267 263 267 284 300 238 231 230 263 243 246 256 252 249 252 248 247 251 250 251 265 273 258 224 174 174 176
335 332 329 327 326 323 319 315 310 304 299 307 306 303 279 261 296 301 295 276 265 267 286 258 256 248 235 255 245 256 264 269 260 247 251 248 261 229 250 261 266 262 222 187 186
337 334 331 326 325 326 322 316 311 302 299 294 294 286 264 290 308 312 320 306 260 253 267 283 275 281 243 243 253 262 269 253 250 250 247 229 243 232 236 247 251 257 255 203 194
342 338 333 328 327 328 325 321 317 308 289 286 284 271 274 310 289 317 324 323 292 248 267 279 274 260 237 228 248 242 237 237 252 235 242 228 238 218 222 231 233 239 244 243 219
344 342 337 332 333 334 330 337 348 323 291 287 255 269 256 262 275 288 307 319 312 285 284 273 236 222 212 202 216 214 226 232 238 231 233 249 235 219 214 224 230 230 232 238 227
345 344 339 337 339 342 346 356 359 357 340 278 266 230 270 264 271 283 279 290 305 254 246 262 257 220 204 205 217 222 227 230 236 230 214 236 244 219 207 217 239 230 226 231 231
344 342 340 339 344 359 360 346 345 322 297 286 265 259 260 266 268 267 257 267 272 269 224 257 256 263 236 219 221 216 226 237 242 215 235 235 235 233 220 218 224 237 231 222 226
346 343 341 337 345 352 345 350 344 334 295 286 260 253 256 244 245 260 254 229 235 261 265 234 255 285 258 233 223 227 215 229 227 223 219 240 250 233 234 233 224 225 231 225 217
342 343 343 343 23 333 3 338 336 332 309 275 242 301 247 227 270 297 261 213 221 274 239 242 233 245 266 248 227 230 222 232 232 239 225 213 239 236 236 243 232 222 223 226 222
334 338 338 347 323 321 321 328 317 329 312 274 37 352 356 310 290 275 193 191 235 232 245 209 224 215 227 243 246 243 233 236 235 236 238 243 242 232 229 233 232 235 214 219 232
323 329 331 335 320 321 338 324 323 27 252 287 39 345 331 309 269 349 29 223 235 235 257 251 289 287 222 240 238 268 280 276 236 232 242 234 231 244 232 230 228 216 217 223 230
315 317 321 319 320 357 345 334 28 184 314 301 340 354 327 360 46 2 299 309 215 210 229 260 235 234 248 299 233 246 262 231 238 220 219 225 226 237 230 236 224 214 224 222 230
312 318 312 304 327 329 321 35 101 280 307 307 338 335 321 357 345 306 292 342 71 331 291 252 244 198 196 192 238 214 225 230 215 208 212 237 226 230 233 265 223 228 244 242 232
316 326 317 327 288 273 204 203 219 300 324 334 321 321 322 323 8 307 223 183 195 43 4 332 267 239 183 186 167 188 212 240 261 283 244 208 226 276 253 252 240 232 230 226 232
324 331 340 3 54 180 154 228 269 300 302 301 309 290 324 319 340 319 343 151 170 196 238 276 290 260 176 179 193 213 165 220 197 206 220 215 217 237 221 231 242 254 256 252 257
325 316 294 360 13 143 198 232 293 290 301 318 304 302 301 304 320 309 348 72 303 217 225 209 250 313 193 192 163 175 221 191 164 213 208 219 235 226 214 236 220 233 243 255 255
312 293 199 311 341 200 220 242 287 302 293 301 302 301 302 324 305 308 302 281 222 295 259 192 251 289 289 54 33 78 207 222 228 166 211 234 253 195 264 281 245 231 230 232 239
286 279 307 275 234 267 278 298 306 310 335 308 297 301 294 316 315 329 309 211 236 50 308 39 327 324 285 119 26 62 24 327 237 243 213 196 248 45 18 34 13 322 234 233 236
288 321 291 243 248 296 309 305 297 314 314 315 309 306 309 315 306 296 331 301 215 274 281 107 249 194 225 257 277 286 338 293 316 194 109 214 225 63 26 8 4 3 26 41 61
236 258 251 284 293 268 293 291 304 308 306 318 321 331 318 314 316 346 350 333 274 264 226 175 250 214 242 203 242 275 285 286 252 272 234 357 262 149 34 356 360 353 359 12 24
241 252 287 288 282 278 287 285 287 293 313 315 312 325 335 312 295 303 313 329 293 298 239 214 273 332 284 255 221 246 251 236 249 247 266 267 284 262 96 44 352 353 352 345 9
254 276 262 262 299 299 254 270 277 291 290 292 301 310 284 281 292 310 271 269 244 262 286 214 192 338 276 27 318 263 235 221 209 207 228 265 239 354 350 341 22 325 333 332 351
Height
1508 1508 1505 1504 1503 1502 1501 1500 1498 1496 1492 1490 1489 1487 1485 1483 1481 1482 1478 1482 1488 1488 1491 1490 1491 1492 1494 1494 1496 1497 1501 1497 1488 1484 1468 1463 1462 1451 1453 1455 1459 1459 1462 1469 1478
1508 1507 1505 1503 1501 1500 1500 1499 1496 1493 1489 1488 1487 1483 1481 1478 1475 1471 1475 1480 1483 1487 1486 1486 1486 1489 1490 1488 1490 1489 1491 1480 1476 1468 1469 1463 1462 1450 1454 1455 1459 1462 1463 1469 1477
1506 1505 1504 1501 1499 1499 1498 1497 1494 1491 1488 1486 1483 1481 1478 1475 1472 1466 1468 1469 1470 1474 1477 1481 1483 1485 1482 1482 1480 1479 1475 1475 1469 1466 1467 1463 1460 1454 1449 1456 1457 1464 1465 1468 1472
1506 1505 1503 1501 1499 1498 1497 1494 1491 1487 1485 1483 1482 1478 1476 1476 1473 1459 1459 1458 1463 1468 1467 1470 1477 1482 1477 1475 1473 1475 1467 1469 1466 1465 1464 1462 1459 1453 1450 1452 1455 1459 1458 1459 1464
1503 1502 1500 1498 1497 1495 1493 1491 1489 1486 1485 1483 1481 1477 1474 1472 1460 1464 1459 1459 1459 1461 1460 1466 1471 1473 1469 1467 1471 1462 1460 1463 1463 1461 1459 1457 1456 1452 1449 1450 1453 1456 1458 1460 1464
1501 1499 1497 1495 1493 1491 1489 1487 1485 1484 1482 1480 1477 1475 1473 1467 1458 1458 1455 1452 1456 1458 1457 1461 1462 1466 1465 1461 1464 1455 1457 1456 1457 1452 1453 1454 1450 1447 1446 1448 1449 1454 1456 1459 1462
1498 1496 1494 1492 1490 1487 1485 1482 1480 1478 1477 1476 1473 1471 1466 1453 1455 1452 1450 1446 1448 1452 1453 1454 1459 1463 1457 1456 1453 1455 1458 1453 1447 1444 1445 1447 1448 1442 1443 1445 1447 1450 1454 1455 1457
1496 1494 1492 1489 1487 1484 1481 1477 1474 1472 1471 1470 1469 1467 1456 1449 1449 1446 1444 1439 1439 1444 1448 1448 1450 1451 1451 1454 1452 1455 1455 1455 1431 1440 1438 1442 1446 1437 1439 1443 1444 1445 1448 1452 1453
1494 1492 1489 1486 1483 1481 1477 1473 1468 1466 1465 1466 1466 1464 1452 1447 1445 1442 1441 1440 1435 1435 1443 1443 1449 1442 1443 1449 1456 1450 1452 1443 1433 1431 1435 1431 1437 1433 1436 1438 1439 1441 1442 1444 1448
1492 1489 1487 1483 1481 1478 1474 1470 1463 1460 1460 1461 1462 1464 1450 1442 1441 1438 1438 1439 1438 1435 1433 1439 1435 1430 1429 1436 1443 1436 1434 1428 1427 1422 1429 1427 1426 1425 1429 1431 1432 1434 1435 1437 1440
1491 1487 1484 1481 1479 1476 1473 1468 1465 1463 1461 1462 1458 1449 1440 1437 1440 1436 1436 1437 1438 1439 1436 1433 1427 1409 1406 1409 1409 1420 1423 1420 1415 1418 1423 1420 1423 1420 1420 1422 1422 1426 1428 1430 1432
1489 1486 1483 1480 1477 1476 1475 1474 1473 1471 1456 1452 1444 1436 1430 1432 1434 1425 1434 1435 1436 1433 1431 1430 1417 1415 1407 1407 1409 1411 1418 1413 1407 1410 1415 1413 1414 1414 1413 1410 1414 1416 1418 1420 1424
1488 1485 1482 1478 1475 1475 1475 1475 1473 1468 1461 1438 1425 1425 1418 1426 1423 1420 1429 1428 1432 1429 1429 1424 1412 1414 1408 1402 1405 1402 1404 1400 1403 1406 1406 1411 1412 1408 1403 1405 1406 1405 1407 1411 1413
1487 1484 1481 1477 1477 1474 1473 1473 1471 1468 1466 1434 1420 1418 1417 1418 1423 1418 1415 1423 1426 1421 1421 1413 1411 1416 1410 1402 1396 1396 1388 1393 1404 1413 1414 1394 1417 1401 1398 1395 1394 1393 1396 1400 1406
1484 1482 1480 1478 1474 1472 1473 1471 1469 1469 1484 1422 1421 1425 1422 1422 1416 1415 1414 1417 1417 1417 1416 1404 1398 1404 1405 1397 1399 1383 1390 1395 1397 1403 1405 1399 1412 1391 1386 1388 1379 1382 1385 1389 1396
1482 1480 1477 1476 1474 1471 1471 1470 1469 1476 1479 1425 1425 1425 1422 1419 1417 1416 1418 1418 1416 1417 1411 1410 1409 1403 1395 1393 1396 1397 1399 1394 1390 1401 1410 1394 1402 1386 1381 1362 1372 1376 1379 1382 1389
1479 1477 1476 1473 1471 1470 1470 1469 1480 1483 1438 1425 1424 1425 1422 1419 1424 1423 1421 1417 1412 1413 1407 1393 1396 1401 1399 1401 1397 1400 1407 1410 1404 1403 1402 1378 1388 1367 1353 1357 1365 1369 1370 1374 1381
1475 1473 1470 1469 1468 1469 1471 1473 1492 1453 1444 1434 1427 1427 1424 1432 1424 1420 1419 1414 1420 1415 1399 1392 1387 1383 1389 1397 1398 1396 1403 1397 1392 1387 1395 1378 1385 1356 1331 1361 1354 1361 1364 1368 1372
1472 1469 1465 1464 1464 1467 1471 1478 1476 1449 1440 1439 1434 1429 1422 1419 1421 1419 1413 1413 1417 1415 1415 1410 1379 1365 1375 1383 1393 1396 1395 1398 1399 1388 1383 1370 1377 1352 1354 1351 1350 1352 1356 1358 1360
1469 1466 1463 1464 1463 1465 1469 1469 1457 1450 1447 1442 1441 1431 1430 1425 1417 1414 1408 1414 1417 1415 1412 1411 1401 1370 1369 1378 1380 1382 1384 1397 1394 1382 1387 1366 1363 1353 1342 1339 1347 1352 1350 1349 1350
1469 1467 1463 1463 1463 1464 1471 1463 1451 1448 1445 1443 1445 1440 1433 1428 1421 1415 1412 1416 1415 1412 1412 1411 1410 1378 1367 1364 1362 1376 1381 1380 1387 1385 1377 1376 1352 1304 1338 1339 1346 1344 1343 1340 1341
1470 1469 1462 1461 1465 1463 1466 1453 1449 1446 1443 1438 1436 1433 1430 1429 1422 1416 1411 1414 1410 1408 1407 1407 1410 1401 1375 1372 1369 1367 1375 1381 1374 1376 1370 1370 1337 1328 1333 1339 1335 1331 1331 1331 1335
1469 1464 1458 1458 1469 1464 1454 1450 1447 1443 1440 1442 1437 1434 1432 1429 1424 1408 1406 1408 1408 1409 1408 1406 1407 1402 1363 1367 1383 1386 1396 1394 1392 1380 1369 1368 1329 1331 1337 1332 1336 1322 1321 1323 1325
1470 1467 1457 1455 1456 1457 1455 1451 1447 1443 1439 1436 1432 1429 1426 1428 1421 1416 1412 1406 1405 1406 1404 1405 1406 1408 1409 1410 1399 1394 1393 1393 1390 1377 1372 1358 1334 1340 1342 1343 1345 1335 1328 1325 1324
1468 1464 1459 1462 1456 1454 1453 1450 1446 1443 1438 1435 1432 1432 1429 1429 1426 1419 1412 1411 1405 1402 1404 1406 1411 1404 1399 1398 1399 1396 1393 1388 1385 1384 1381 1362 1354 1343 1350 1350 1351 1346 1333 1332 1326
1465 1462 1458 1454 1453 1452 1449 1447 1444 1438 1437 1435 1435 1430 1432 1431 1426 1425 1421 1418 1413 1403 1406 1406 1404 1400 1397 1387 1388 1393 1383 1382 1373 1372 1377 1374 1366 1350 1351 1349 1356 1347 1339 1338 1333
1459 1457 1457 1450 1449 1451 1446 1443 1438 1435 1433 1431 1429 1427 1428 1426 1422 1419 1415 1411 1410 1409 1406 1405 1405 1402 1398 1387 1387 1391 1372 1363 1359 1356 1362 1363 1358 1349 1355 1353 1354 1357 1350 1341 1341